Hourly Data Report for July 02, 2022

VICTORIA UNIVERSITY CS
BRITISH COLUMBIA
Current Station Operator: ECCC - MSC

48°27'25.200" N
123°18'16.600" W
60.10 m
1018598
71783
WYJ

Download Data

Hourly Data (July 2022)
Hourly Data Report for July 2, 2022
TIME
LST
Temp Definition
°C
Dew Point Definition
°C
Rel Hum Definition
%
Precip. Amount Definition
mm

Wind Dir Definition
10's deg

Wind Spd Definition
km/h
Visibility Definition
km
Stn Press Definition
kPa
Hmdx Definition


Wind Chill Definition


Weather Definition


00:00 12.7 10.1 84 0.0 24 6   100.81     LegendNANA
01:00 12.6 10.1 85 0.0 25 5   100.80     LegendNANA
02:00 11.9 9.9 87 0.0 25 3   100.81     LegendNANA
03:00 11.3 9.8 90 0.0 25 3   100.80     LegendNANA
04:00 10.9 9.7 92 0.0 26 3   100.81     LegendNANA
05:00 10.1 9.3 95 0.0 26 2   100.81     LegendNANA
06:00 13.5 11.2 86 0.0 25 2   100.81     LegendNANA
07:00 15.8 11.2 74 0.0 14 1   100.82     LegendNANA
08:00 15.6 11.0 74 0.0 8 4   100.79     LegendNANA
09:00 16.8 11.6 72 0.0 9 7   100.77     LegendNANA
10:00 17.9 12.4 70 0.0 9 7   100.74     LegendNANA
11:00 19.0 12.6 66 0.0 15 3   100.71     LegendNANA
12:00 19.0 12.0 64 0.0 18 6   100.68     LegendNANA
13:00 18.6 12.0 65 0.0 18 8   100.63     LegendNANA
14:00 20.2 13.0 63 0.0 20 5   100.56     LegendNANA
15:00 19.3 11.6 61 0.0 20 6   100.50     LegendNANA
16:00 21.4 11.6 54 0.0 23 10   100.43     LegendNANA
17:00 20.5 11.4 56 0.0 24 8   100.37     LegendNANA
18:00 20.5 11.4 56 0.0 24 9   100.33     LegendNANA
19:00 18.2 10.0 59 0.0 24 10   100.34     LegendNANA
20:00 16.2 10.0 67 0.0 25 8   100.34     LegendNANA
21:00 15.0 10.0 72 0.0 24 8   100.40     LegendNANA
22:00 14.5 10.0 74 0.0 24 9   100.37     LegendNANA
23:00 14.0 10.1 78 0.0 24 7   100.40     LegendNANA

Notes on Data Quality.

Legend

  • E = Estimated
  • M = Missing
  • NA = Not Available*
  • [empty] = Indicates an unobserved value
Date modified: